START_TIME,STEP,MOV.,M35,t_acc.,PL05,t_acc.,PL06,t_acc.,PL07,t_acc.
1979-07-05 09:00:24.650 ,0,0,0.,4.8,2.,4.8,2.,4.8,0.,4.8
1979-07-05 09:00:29.450 ,0,0,0.,4.8,6.,4.8,0.,4.8,1.,4.8
1979-07-05 09:00:34.250 ,0,0,0.,4.8,2.,4.8,2.,4.8,1.,4.8
1979-07-05 09:00:39.050 ,0,0,0.,4.8,4.,4.8,7.,4.8,2.,4.8
1979-07-05 09:00:43.850 ,0,0,0.,4.8,2.,4.8,0.,4.8,0.,4.8
1979-07-05 09:00:48.650 ,0,0,0.,4.8,5.,4.8,1.,4.8,0.,4.8
1979-07-05 09:00:53.450 ,0,0,0.,4.8,3.,4.8,1.,4.8,0.,4.8
1979-07-05 09:00:58.250 ,0,0,0.,4.8,4.,4.8,1.,4.8,0.,4.8
1979-07-05 09:01:03.050 ,0,0,0.,4.8,4.,4.8,1.,4.8,0.,4.8
1979-07-05 09:01:07.850 ,0,0,0.,4.8,2.,4.8,0.,4.8,0.,4.8
1979-07-05 09:01:12.650 ,0,0,0.,4.8,2.,4.8,1.,4.8,0.,4.8
1979-07-05 09:01:17.450 ,0,0,0.,4.8,3.,4.8,0.,4.8,2.,4.8
1979-07-05 09:01:22.250 ,0,0,0.,4.8,1.,4.8,0.,4.8,1.,4.8
1979-07-05 09:01:27.050 ,0,0,0.,4.8,3.,4.8,1.,4.8,2.,4.8
1979-07-05 09:01:31.850 ,0,0,0.,4.8,4.,4.8,0.,4.8,1.,4.8
1979-07-05 09:01:36.650 ,1,0,0.,4.8,2.,4.8,2.,4.8,0.,4.8
1979-07-05 09:01:41.450 ,1,0,0.,4.8,4.,4.8,0.,4.8,2.,4.8
1979-07-05 09:01:46.250 ,1,0,0.,4.8,2.,4.8,0.,4.8,0.,4.8
1979-07-05 09:01:51.050 ,1,0,0.,4.8,1.,4.8,1.,4.8,0.,4.8
1979-07-05 09:01:55.850 ,1,0,0.,4.8,0.,4.8,0.,4.8,0.,4.8
1979-07-05 09:02:00.650 ,1,0,0.,4.8,3.,4.8,0.,4.8,0.,4.8
1979-07-05 09:02:05.450 ,1,0,0.,4.8,1.,4.8,1.,4.8,0.,4.8
1979-07-05 09:02:10.250 ,1,0,0.,4.8,3.,4.8,1.,4.8,0.,4.8
1979-07-05 09:02:15.050 ,1,0,0.,4.8,9.,4.8,0.,4.8,1.,4.8
1979-07-05 09:02:19.850 ,1,0,0.,4.8,1.,4.8,1.,4.8,1.,4.8
1979-07-05 09:02:24.650 ,2,0,0.,4.8,0.,4.8,2.,4.8,0.,4.8
1979-07-05 09:02:29.450 ,2,0,0.,4.8,1.,4.8,1.,4.8,1.,4.8
1979-07-05 09:02:34.250 ,2,0,0.,4.8,1.,4.8,0.,4.8,0.,4.8
1979-07-05 09:02:39.050 ,2,0,0.,4.8,0.,4.8,1.,4.8,1.,4.8
1979-07-05 09:02:43.850 ,2,0,0.,4.8,2.,4.8,1.,4.8,0.,4.8
1979-07-05 09:02:48.650 ,2,0,0.,4.8,3.,4.8,2.,4.8,1.,4.8
1979-07-05 09:02:53.450 ,2,0,0.,4.8,4.,4.8,1.,4.8,0.,4.8
1979-07-05 09:02:58.250 ,2,0,0.,4.8,0.,4.8,0.,4.8,0.,4.8
1979-07-05 09:03:03.050 ,2,0,0.,4.8,0.,4.8,1.,4.8,0.,4.8
1979-07-05 09:03:07.850 ,2,0,0.,4.8,3.,4.8,0.,4.8,1.,4.8
1979-07-05 09:03:12.650 ,3,0,0.,4.8,4.,4.8,0.,4.8,0.,4.8
1979-07-05 09:03:17.450 ,3,0,0.,4.8,3.,4.8,1.,4.8,0.,4.8
1979-07-05 09:03:22.250 ,3,0,0.,4.8,1.,4.8,0.,4.8,0.,4.8
1979-07-05 09:03:27.050 ,3,0,0.,4.8,2.,4.8,3.,4.8,0.,4.8
1979-07-05 09:03:31.850 ,3,0,0.,4.8,1.,4.8,0.,4.8,0.,4.8
1979-07-05 09:03:36.650 ,3,0,0.,4.8,5.,4.8,5.,4.8,0.,4.8
1979-07-05 09:03:41.450 ,3,0,0.,4.8,2.,4.8,3.,4.8,1.,4.8
1979-07-05 09:03:46.250 ,3,0,0.,4.8,7.,4.8,1.,4.8,0.,4.8
1979-07-05 09:03:51.050 ,3,0,0.,4.8,3.,4.8,1.,4.8,1.,4.8
1979-07-05 09:03:55.850 ,3,0,0.,4.8,3.,4.8,0.,4.8,2.,4.8
1979-07-05 09:04:00.650 ,4,0,0.,4.8,6.,4.8,0.,4.8,0.,4.8
1979-07-05 09:04:05.450 ,4,0,0.,4.8,4.,4.8,0.,4.8,0.,4.8
1979-07-05 09:04:10.250 ,4,0,0.,4.8,4.,4.8,2.,4.8,1.,4.8
1979-07-05 09:04:15.050 ,4,0,0.,4.8,3.,4.8,1.,4.8,0.,4.8
1979-07-05 09:04:19.850 ,4,0,0.,4.8,5.,4.8,2.,4.8,1.,4.8
1979-07-05 09:04:24.650 ,4,0,0.,4.8,5.,4.8,2.,4.8,1.,4.8
1979-07-05 09:04:29.450 ,4,0,0.,4.8,3.,4.8,0.,4.8,1.,4.8
1979-07-05 09:04:34.250 ,4,0,0.,4.8,6.,4.8,1.,4.8,3.,4.8
1979-07-05 09:04:39.050 ,4,0,0.,4.8,4.,4.8,2.,4.8,0.,4.8
1979-07-05 09:04:43.850 ,4,0,0.,4.8,2.,4.8,2.,4.8,3.,4.8
1979-07-05 09:04:48.650 ,5,0,0.,4.8,2.,4.8,1.,4.8,1.,4.8
1979-07-05 09:04:53.450 ,5,0,0.,4.8,2.,4.8,2.,4.8,0.,4.8
1979-07-05 09:04:58.250 ,5,0,0.,4.8,6.,4.8,2.,4.8,1.,4.8
1979-07-05 09:05:03.050 ,5,0,0.,4.8,9.,4.8,4.,4.8,3.,4.8
1979-07-05 09:05:07.850 ,5,0,0.,4.8,8.,4.8,3.,4.8,2.,4.8
1979-07-05 09:05:12.650 ,5,0,0.,4.8,10.,4.8,2.,4.8,3.,4.8
1979-07-05 09:05:17.450 ,5,0,0.,4.8,3.,4.8,0.,4.8,1.,4.8
1979-07-05 09:05:22.250 ,5,0,0.,4.8,4.,4.8,1.,4.8,0.,4.8
1979-07-05 09:05:27.050 ,5,0,0.,4.8,4.,4.8,2.,4.8,1.,4.8
1979-07-05 09:05:31.850 ,5,0,0.,4.8,8.,4.8,3.,4.8,3.,4.8
1979-07-05 09:05:36.650 ,6,0,0.,4.8,6.,4.8,2.,4.8,1.,4.8
1979-07-05 09:05:41.450 ,6,0,0.,4.8,7.,4.8,2.,4.8,0.,4.8
1979-07-05 09:05:46.250 ,6,0,0.,4.8,3.,4.8,1.,4.8,1.,4.8
1979-07-05 09:05:51.050 ,6,0,0.,4.8,5.,4.8,1.,4.8,2.,4.8
1979-07-05 09:05:55.850 ,6,0,0.,4.8,2.,4.8,2.,4.8,0.,4.8
1979-07-05 09:06:00.650 ,6,0,0.,4.8,5.,4.8,1.,4.8,2.,4.8
1979-07-05 09:06:05.450 ,6,0,0.,4.8,2.,4.8,3.,4.8,2.,4.8
1979-07-05 09:06:10.250 ,6,0,0.,4.8,5.,4.8,2.,4.8,2.,4.8
1979-07-05 09:06:15.050 ,6,0,0.,4.8,3.,4.8,2.,4.8,4.,4.8
1979-07-05 09:06:19.850 ,6,0,0.,4.8,1.,4.8,2.,4.8,1.,4.8
1979-07-05 09:06:24.650 ,7,0,0.,4.8,3.,4.8,4.,4.8,0.,4.8
1979-07-05 09:06:29.450 ,7,0,0.,4.8,8.,4.8,5.,4.8,1.,4.8
1979-07-05 09:06:34.250 ,7,0,0.,4.8,1.,4.8,0.,4.8,0.,4.8
1979-07-05 09:06:39.050 ,7,0,0.,4.8,0.,4.8,0.,4.8,0.,4.8
1979-07-05 09:06:43.850 ,7,0,0.,4.8,0.,4.8,0.,4.8,0.,4.8
1979-07-05 09:06:48.650 ,7,0,0.,4.8,0.,4.8,0.,4.8,0.,4.8
1979-07-05 09:06:53.450 ,7,0,0.,4.8,1.,4.8,0.,4.8,0.,4.8
1979-07-05 09:06:58.250 ,7,0,0.,4.8,0.,4.8,0.,4.8,0.,4.8
1979-07-05 09:07:03.050 ,7,0,0.,4.8,0.,4.8,0.,4.8,0.,4.8
1979-07-05 09:07:07.850 ,7,0,0.,4.8,1.,4.8,0.,4.8,1.,4.8
1979-07-05 09:07:12.650 ,3,1,0.,4.8,0.,4.8,2.,4.8,0.,4.8
1979-07-05 09:07:17.450 ,3,1,0.,4.8,2.,4.8,6.,4.8,0.,4.8
1979-07-05 09:07:22.250 ,3,1,0.,4.8,12.,4.8,3.,4.8,0.,4.8
1979-07-05 09:07:27.050 ,3,1,0.,4.8,4.,4.8,2.,4.8,3.,4.8
1979-07-05 09:07:31.850 ,3,1,0.,4.8,4.,4.8,1.,4.8,1.,4.8
1979-07-05 09:07:36.650 ,0,1,0.,4.8,2.,4.8,3.,4.8,0.,4.8
1979-07-05 09:07:41.450 ,0,1,0.,4.8,3.,4.8,1.,4.8,0.,4.8
1979-07-05 09:07:46.250 ,0,1,0.,4.8,5.,4.8,1.,4.8,1.,4.8
1979-07-05 09:07:51.050 ,0,1,0.,4.8,2.,4.8,1.,4.8,0.,4.8
1979-07-05 09:07:55.850 ,0,1,0.,4.8,5.,4.8,2.,4.8,1.,4.8
1979-07-05 09:08:00.650 ,4,1,0.,4.8,4.,4.8,1.,4.8,0.,4.8
1979-07-05 09:08:05.450 ,4,1,0.,4.8,3.,4.8,1.,4.8,0.,4.8
1979-07-05 09:08:10.250 ,4,1,0.,4.8,4.,4.8,0.,4.8,0.,4.8
1979-07-05 09:08:15.050 ,4,1,0.,4.8,1.,4.8,3.,4.8,1.,4.8
1979-07-05 09:08:19.850 ,4,1,0.,4.8,5.,4.8,1.,4.8,1.,4.8
1979-07-05 09:08:24.650 ,7,1,0.,4.8,7.,4.8,4.,4.8,1.,4.8
1979-07-05 09:08:29.450 ,7,1,0.,4.8,6.,4.8,3.,4.8,2.,4.8
1979-07-05 09:08:34.250 ,7,1,0.,4.8,4.,4.8,3.,4.8,0.,4.8
1979-07-05 09:08:39.050 ,7,1,0.,4.8,0.,4.8,2.,4.8,0.,4.8
1979-07-05 09:08:43.850 ,7,1,0.,4.8,1.,4.8,0.,4.8,0.,4.8
1979-07-05 09:08:48.650 ,3,1,0.,4.8,3.,4.8,0.,4.8,0.,4.8
1979-07-05 09:08:53.450 ,3,1,0.,4.8,4.,4.8,0.,4.8,0.,4.8
1979-07-05 09:08:58.250 ,3,1,0.,4.8,5.,4.8,4.,4.8,2.,4.8
1979-07-05 09:09:03.050 ,3,1,0.,4.8,6.,4.8,3.,4.8,3.,4.8
1979-07-05 09:09:07.850 ,3,1,0.,4.8,5.,4.8,1.,4.8,0.,4.8
1979-07-05 09:09:12.650 ,0,1,0.,4.8,4.,4.8,0.,4.8,1.,4.8
1979-07-05 09:09:17.450 ,0,1,0.,4.8,1.,4.8,3.,4.8,0.,4.8
1979-07-05 09:09:22.250 ,0,1,0.,4.8,4.,4.8,2.,4.8,0.,4.8
1979-07-05 09:09:27.050 ,0,1,0.,4.8,4.,4.8,0.,4.8,0.,4.8
1979-07-05 09:09:31.850 ,0,1,0.,4.8,2.,4.8,0.,4.8,2.,4.8
1979-07-05 09:09:36.650 ,4,1,0.,4.8,5.,4.8,1.,4.8,0.,4.8
1979-07-05 09:09:41.450 ,4,1,0.,4.8,4.,4.8,0.,4.8,1.,4.8
1979-07-05 09:09:46.250 ,4,1,0.,4.8,2.,4.8,0.,4.8,0.,4.8
1979-07-05 09:09:51.050 ,4,1,0.,4.8,3.,4.8,0.,4.8,0.,4.8
1979-07-05 09:09:55.850 ,4,1,0.,4.8,5.,4.8,2.,4.8,1.,4.8
1979-07-05 09:10:00.650 ,7,1,0.,4.8,5.,4.8,1.,4.8,0.,4.8
1979-07-05 09:10:05.450 ,7,1,0.,4.8,4.,4.8,2.,4.8,3.,4.8
1979-07-05 09:10:10.250 ,7,1,0.,4.8,7.,4.8,2.,4.8,5.,4.8
1979-07-05 09:10:15.050 ,7,1,0.,4.8,2.,4.8,0.,4.8,0.,4.8
1979-07-05 09:10:19.850 ,7,1,0.,4.8,0.,4.8,0.,4.8,0.,4.8
1979-07-05 09:10:24.650 ,3,1,0.,4.8,3.,4.8,0.,4.8,1.,4.8
1979-07-05 09:10:29.450 ,3,1,0.,4.8,2.,4.8,4.,4.8,2.,4.8
1979-07-05 09:10:34.250 ,3,1,0.,4.8,5.,4.8,5.,4.8,1.,4.8
1979-07-05 09:10:39.050 ,3,1,0.,4.8,4.,4.8,1.,4.8,2.,4.8
1979-07-05 09:10:43.850 ,3,1,0.,4.8,5.,4.8,2.,4.8,0.,4.8
1979-07-05 09:10:48.650 ,0,1,0.,4.8,3.,4.8,1.,4.8,1.,4.8
1979-07-05 09:10:53.450 ,0,1,0.,4.8,2.,4.8,1.,4.8,0.,4.8
1979-07-05 09:10:58.250 ,0,1,0.,4.8,2.,4.8,2.,4.8,1.,4.8
1979-07-05 09:11:03.050 ,0,1,0.,4.8,1.,4.8,0.,4.8,1.,4.8
1979-07-05 09:11:07.850 ,0,1,0.,4.8,2.,4.8,1.,4.8,1.,4.8
1979-07-05 09:11:12.650 ,4,1,0.,4.8,0.,4.8,3.,4.8,0.,4.8
1979-07-05 09:11:17.450 ,4,1,0.,4.8,3.,4.8,2.,4.8,0.,4.8
1979-07-05 09:11:22.250 ,4,1,0.,4.8,0.,4.8,0.,4.8,2.,4.8
1979-07-05 09:11:27.050 ,4,1,0.,4.8,3.,4.8,0.,4.8,1.,4.8
1979-07-05 09:11:31.850 ,4,1,0.,4.8,2.,4.8,3.,4.8,0.,4.8
1979-07-05 09:11:36.650 ,0,0,0.,4.8,1.,4.8,2.,4.8,0.,4.8
1979-07-05 09:11:41.450 ,0,0,0.,4.8,10.,4.8,1.,4.8,1.,4.8
1979-07-05 09:11:46.250 ,0,0,0.,4.8,2.,4.8,4.,4.8,0.,4.8
1979-07-05 09:11:51.050 ,0,0,0.,4.8,0.,4.8,0.,4.8,0.,4.8
1979-07-05 09:11:55.850 ,0,0,0.,4.8,0.,4.8,0.,4.8,0.,4.8
1979-07-05 09:12:00.650 ,3,1,0.,4.8,2.,4.8,1.,4.8,3.,4.8
1979-07-05 09:12:05.450 ,3,1,0.,4.8,9.,4.8,4.,4.8,2.,4.8
1979-07-05 09:12:10.250 ,3,1,0.,4.8,5.,4.8,1.,4.8,1.,4.8
1979-07-05 09:12:15.050 ,3,1,0.,4.8,5.,4.8,2.,4.8,2.,4.8
1979-07-05 09:12:19.850 ,3,1,0.,4.8,7.,4.8,0.,4.8,0.,4.8
1979-07-05 09:12:24.650 ,0,1,0.,4.8,6.,4.8,1.,4.8,0.,4.8
1979-07-05 09:12:29.450 ,0,1,0.,4.8,2.,4.8,1.,4.8,2.,4.8
1979-07-05 09:12:34.250 ,0,1,0.,4.8,3.,4.8,0.,4.8,0.,4.8
1979-07-05 09:12:39.050 ,0,1,0.,4.8,3.,4.8,0.,4.8,0.,4.8
1979-07-05 09:12:43.850 ,0,1,0.,4.8,4.,4.8,1.,4.8,0.,4.8
1979-07-05 09:12:48.650 ,4,1,0.,4.8,2.,4.8,0.,4.8,0.,4.8
1979-07-05 09:12:53.450 ,4,1,0.,4.8,4.,4.8,2.,4.8,0.,4.8
1979-07-05 09:12:58.250 ,4,1,0.,4.8,0.,4.8,1.,4.8,0.,4.8
1979-07-05 09:13:03.050 ,4,1,0.,4.8,3.,4.8,2.,4.8,0.,4.8
1979-07-05 09:13:07.850 ,4,1,0.,4.8,5.,4.8,0.,4.8,0.,4.8
1979-07-05 09:13:12.650 ,7,1,0.,4.8,5.,4.8,1.,4.8,6.,4.8
1979-07-05 09:13:17.450 ,7,1,0.,4.8,6.,4.8,3.,4.8,0.,4.8
1979-07-05 09:13:22.250 ,7,1,0.,4.8,5.,4.8,0.,4.8,2.,4.8
1979-07-05 09:13:27.050 ,7,1,0.,4.8,4.,4.8,0.,4.8,0.,4.8
1979-07-05 09:13:31.850 ,7,1,0.,4.8,1.,4.8,0.,4.8,0.,4.8
1979-07-05 09:13:36.650 ,3,1,0.,4.8,0.,4.8,0.,4.8,0.,4.8
1979-07-05 09:13:41.450 ,3,1,0.,4.8,6.,4.8,1.,4.8,2.,4.8
1979-07-05 09:13:46.250 ,3,1,0.,4.8,3.,4.8,2.,4.8,0.,4.8
1979-07-05 09:13:51.050 ,3,1,0.,4.8,4.,4.8,0.,4.8,1.,4.8
1979-07-05 09:13:55.850 ,3,1,0.,4.8,2.,4.8,0.,4.8,1.,4.8
1979-07-05 09:14:00.650 ,0,1,0.,4.8,6.,4.8,1.,4.8,1.,4.8
1979-07-05 09:14:05.450 ,0,1,0.,4.8,1.,4.8,1.,4.8,0.,4.8
1979-07-05 09:14:10.250 ,0,1,0.,4.8,6.,4.8,0.,4.8,1.,4.8
1979-07-05 09:14:15.050 ,0,1,0.,4.8,2.,4.8,0.,4.8,0.,4.8
1979-07-05 09:14:19.850 ,0,1,0.,4.8,4.,4.8,0.,4.8,1.,4.8
1979-07-05 09:14:24.650 ,4,1,0.,4.8,1.,4.8,1.,4.8,0.,4.8
1979-07-05 09:14:29.450 ,4,1,0.,4.8,3.,4.8,0.,4.8,0.,4.8
1979-07-05 09:14:34.250 ,4,1,0.,4.8,2.,4.8,0.,4.8,0.,4.8
1979-07-05 09:14:39.050 ,4,1,0.,4.8,3.,4.8,0.,4.8,0.,4.8
1979-07-05 09:14:43.850 ,4,1,0.,4.8,4.,4.8,0.,4.8,0.,4.8
1979-07-05 09:14:48.650 ,7,1,0.,4.8,1.,4.8,0.,4.8,0.,4.8
1979-07-05 09:14:53.450 ,7,1,0.,4.8,5.,4.8,3.,4.8,2.,4.8
1979-07-05 09:14:58.250 ,7,1,0.,4.8,7.,4.8,1.,4.8,0.,4.8
1979-07-05 09:15:03.050 ,7,1,0.,4.8,2.,4.8,0.,4.8,0.,4.8
1979-07-05 09:15:07.850 ,7,1,0.,4.8,0.,4.8,0.,4.8,0.,4.8
1979-07-05 09:15:12.650 ,3,1,0.,4.8,2.,4.8,1.,4.8,1.,4.8
1979-07-05 09:15:17.450 ,3,1,0.,4.8,3.,4.8,2.,4.8,2.,4.8
1979-07-05 09:15:22.250 ,3,1,0.,4.8,2.,4.8,1.,4.8,0.,4.8
1979-07-05 09:15:27.050 ,3,1,0.,4.8,5.,4.8,0.,4.8,1.,4.8
1979-07-05 09:15:31.850 ,3,1,0.,4.8,5.,4.8,0.,4.8,0.,4.8
1979-07-05 09:15:36.650 ,0,1,0.,4.8,3.,4.8,1.,4.8,0.,4.8
1979-07-05 09:15:41.450 ,0,1,0.,4.8,1.,4.8,0.,4.8,1.,4.8
1979-07-05 09:15:46.250 ,0,1,0.,4.8,0.,4.8,2.,4.8,0.,4.8
1979-07-05 09:15:51.050 ,0,1,0.,4.8,1.,4.8,2.,4.8,1.,4.8
1979-07-05 09:15:55.850 ,0,1,0.,4.8,2.,4.8,0.,4.8,1.,4.8
1979-07-05 09:16:00.650 ,4,1,0.,4.8,4.,4.8,0.,4.8,0.,4.8
1979-07-05 09:16:05.450 ,4,1,0.,4.8,0.,4.8,1.,4.8,0.,4.8
1979-07-05 09:16:10.250 ,4,1,0.,4.8,0.,4.8,1.,4.8,0.,4.8
1979-07-05 09:16:15.050 ,4,1,0.,4.8,5.,4.8,0.,4.8,0.,4.8
1979-07-05 09:16:19.850 ,4,1,0.,4.8,3.,4.8,3.,4.8,0.,4.8
1979-07-05 09:16:24.650 ,7,1,0.,4.8,3.,4.8,4.,4.8,0.,4.8
1979-07-05 09:16:29.450 ,7,1,0.,4.8,2.,4.8,4.,4.8,1.,4.8
1979-07-05 09:16:34.250 ,7,1,0.,4.8,6.,4.8,0.,4.8,2.,4.8
1979-07-05 09:16:39.050 ,7,1,0.,4.8,1.,4.8,0.,4.8,0.,4.8
1979-07-05 09:16:43.850 ,7,1,0.,4.8,0.,4.8,0.,4.8,0.,4.8
1979-07-05 09:16:48.650 ,3,1,0.,4.8,3.,4.8,0.,4.8,1.,4.8
1979-07-05 09:16:53.450 ,3,1,0.,4.8,7.,4.8,0.,4.8,4.,4.8
1979-07-05 09:16:58.250 ,3,1,0.,4.8,4.,4.8,1.,4.8,0.,4.8
1979-07-05 09:17:03.050 ,3,1,0.,4.8,9.,4.8,0.,4.8,2.,4.8
1979-07-05 09:17:07.850 ,3,1,0.,4.8,1.,4.8,0.,4.8,0.,4.8
1979-07-05 09:17:12.650 ,0,1,0.,4.8,6.,4.8,0.,4.8,0.,4.8
1979-07-05 09:17:17.450 ,0,1,0.,4.8,4.,4.8,1.,4.8,0.,4.8
1979-07-05 09:17:22.250 ,0,1,0.,4.8,2.,4.8,1.,4.8,0.,4.8
1979-07-05 09:17:27.050 ,0,1,,0,,0,,0,,0
1979-07-05 09:17:31.850 ,0,1,0.,4.8,2.,4.8,0.,4.8,0.,4.8
1979-07-05 09:17:36.650 ,0,0,0.,4.8,7.,4.8,0.,4.8,1.,4.8
1979-07-05 09:17:41.450 ,0,0,0.,4.8,5.,4.8,1.,4.8,1.,4.8
1979-07-05 09:17:46.250 ,0,0,0.,4.8,2.,4.8,2.,4.8,0.,4.8
1979-07-05 09:17:51.050 ,0,0,0.,4.8,6.,4.8,1.,4.8,1.,4.8
1979-07-05 09:17:55.850 ,0,0,0.,4.8,5.,4.8,2.,4.8,1.,4.8
1979-07-05 09:18:00.650 ,0,0,0.,4.8,5.,4.8,3.,4.8,2.,4.8
1979-07-05 09:18:05.450 ,0,0,0.,4.8,5.,4.8,1.,4.8,1.,4.8
1979-07-05 09:18:10.250 ,0,0,0.,4.8,10.,4.8,2.,4.8,0.,4.8
1979-07-05 09:18:15.050 ,0,0,0.,4.8,3.,4.8,0.,4.8,1.,4.8
1979-07-05 09:18:19.850 ,0,0,0.,4.8,0.,4.8,0.,4.8,1.,4.8
1979-07-05 09:18:24.650 ,5,0,0.,4.8,3.,4.8,1.,4.8,1.,4.8
1979-07-05 09:18:29.450 ,5,0,0.,4.8,4.,4.8,2.,4.8,2.,4.8
1979-07-05 09:18:34.250 ,5,0,0.,4.8,4.,4.8,2.,4.8,1.,4.8
1979-07-05 09:18:39.050 ,5,0,0.,4.8,9.,4.8,1.,4.8,1.,4.8
1979-07-05 09:18:43.850 ,5,0,0.,4.8,4.,4.8,2.,4.8,0.,4.8
1979-07-05 09:18:48.650 ,5,0,0.,4.8,5.,4.8,0.,4.8,1.,4.8
1979-07-05 09:18:53.450 ,5,0,0.,4.8,7.,4.8,5.,4.8,0.,4.8
1979-07-05 09:18:58.250 ,5,0,0.,4.8,12.,4.8,2.,4.8,0.,4.8
1979-07-05 09:19:03.050 ,5,0,0.,4.8,3.,4.8,0.,4.8,0.,4.8
1979-07-05 09:19:07.850 ,5,0,0.,4.8,6.,4.8,2.,4.8,2.,4.8
1979-07-05 09:19:12.650 ,4,0,0.,4.8,0.,4.8,1.,4.8,1.,4.8
1979-07-05 09:19:17.450 ,4,0,0.,4.8,5.,4.8,1.,4.8,1.,4.8
1979-07-05 09:19:22.250 ,4,0,0.,4.8,2.,4.8,0.,4.8,0.,4.8
1979-07-05 09:19:27.050 ,4,0,0.,4.8,4.,4.8,1.,4.8,0.,4.8
1979-07-05 09:19:31.850 ,4,0,0.,4.8,3.,4.8,1.,4.8,0.,4.8
1979-07-05 09:19:36.650 ,4,0,0.,4.8,10.,4.8,1.,4.8,0.,4.8
1979-07-05 09:19:41.450 ,4,0,0.,4.8,2.,4.8,0.,4.8,1.,4.8
1979-07-05 09:19:46.250 ,4,0,0.,4.8,4.,4.8,1.,4.8,1.,4.8
1979-07-05 09:19:51.050 ,4,0,0.,4.8,2.,4.8,2.,4.8,0.,4.8
1979-07-05 09:19:55.850 ,4,0,0.,4.8,2.,4.8,1.,4.8,3.,4.8
1979-07-05 09:20:00.650 ,3,0,0.,4.8,1.,4.8,1.,4.8,1.,4.8
1979-07-05 09:20:05.450 ,3,0,0.,4.8,5.,4.8,0.,4.8,0.,4.8
1979-07-05 09:20:10.250 ,3,0,0.,4.8,4.,4.8,2.,4.8,1.,4.8
1979-07-05 09:20:15.050 ,3,0,0.,4.8,2.,4.8,1.,4.8,0.,4.8
1979-07-05 09:20:19.850 ,3,0,0.,4.8,3.,4.8,1.,4.8,0.,4.8
1979-07-05 09:20:24.650 ,3,0,0.,4.8,3.,4.8,2.,4.8,1.,4.8
1979-07-05 09:20:29.450 ,3,0,0.,4.8,1.,4.8,1.,4.8,1.,4.8
1979-07-05 09:20:34.250 ,3,0,0.,4.8,5.,4.8,0.,4.8,0.,4.8
1979-07-05 09:20:39.050 ,3,0,0.,4.8,3.,4.8,0.,4.8,0.,4.8
1979-07-05 09:20:43.850 ,3,0,0.,4.8,6.,4.8,2.,4.8,0.,4.8
1979-07-05 09:20:48.650 ,2,0,0.,4.8,5.,4.8,2.,4.8,0.,4.8
1979-07-05 09:20:53.450 ,2,0,0.,4.8,5.,4.8,0.,4.8,2.,4.8
1979-07-05 09:20:58.250 ,2,0,0.,4.8,2.,4.8,1.,4.8,1.,4.8
1979-07-05 09:21:03.050 ,2,0,0.,4.8,3.,4.8,0.,4.8,0.,4.8
1979-07-05 09:21:07.850 ,2,0,0.,4.8,1.,4.8,1.,4.8,0.,4.8
1979-07-05 09:21:12.650 ,2,0,0.,4.8,4.,4.8,0.,4.8,1.,4.8
1979-07-05 09:21:17.450 ,2,0,0.,4.8,3.,4.8,0.,4.8,0.,4.8
1979-07-05 09:21:22.250 ,2,0,0.,4.8,2.,4.8,1.,4.8,0.,4.8
1979-07-05 09:21:27.050 ,2,0,0.,4.8,2.,4.8,0.,4.8,2.,4.8
1979-07-05 09:21:31.850 ,2,0,0.,4.8,3.,4.8,0.,4.8,0.,4.8
1979-07-05 09:21:36.650 ,1,0,0.,4.8,0.,4.8,0.,4.8,0.,4.8
1979-07-05 09:21:41.450 ,1,0,0.,4.8,2.,4.8,1.,4.8,1.,4.8
1979-07-05 09:21:46.250 ,1,0,0.,4.8,1.,4.8,1.,4.8,4.,4.8
1979-07-05 09:21:51.050 ,1,0,0.,4.8,0.,4.8,2.,4.8,0.,4.8
1979-07-05 09:21:55.850 ,1,0,0.,4.8,5.,4.8,0.,4.8,0.,4.8
1979-07-05 09:22:00.650 ,1,0,0.,4.8,1.,4.8,0.,4.8,1.,4.8
1979-07-05 09:22:05.450 ,1,0,0.,4.8,2.,4.8,0.,4.8,0.,4.8
1979-07-05 09:22:10.250 ,1,0,0.,4.8,7.,4.8,1.,4.8,0.,4.8
1979-07-05 09:22:15.050 ,1,0,0.,4.8,1.,4.8,0.,4.8,1.,4.8
1979-07-05 09:22:19.850 ,1,0,0.,4.8,2.,4.8,1.,4.8,1.,4.8
1979-07-05 09:22:24.650 ,0,0,0.,4.8,2.,4.8,0.,4.8,1.,4.8
1979-07-05 09:22:29.450 ,0,0,0.,4.8,4.,4.8,0.,4.8,0.,4.8
1979-07-05 09:22:34.250 ,0,0,0.,4.8,4.,4.8,1.,4.8,0.,4.8
1979-07-05 09:22:39.050 ,0,0,0.,4.8,2.,4.8,3.,4.8,0.,4.8
1979-07-05 09:22:43.850 ,0,0,0.,4.8,4.,4.8,1.,4.8,0.,4.8
1979-07-05 09:22:48.650 ,0,0,0.,4.8,2.,4.8,2.,4.8,0.,4.8
1979-07-05 09:22:53.450 ,0,0,0.,4.8,4.,4.8,0.,4.8,0.,4.8
1979-07-05 09:22:58.250 ,0,0,0.,4.8,1.,4.8,0.,4.8,0.,4.8
1979-07-05 09:23:03.050 ,0,0,0.,4.8,0.,4.8,1.,4.8,1.,4.8
1979-07-05 09:23:07.850 ,0,0,0.,4.8,5.,4.8,1.,4.8,0.,4.8
1979-07-05 09:23:12.650 ,0,0,0.,4.8,2.,4.8,0.,4.8,1.,4.8
1979-07-05 09:23:17.450 ,0,0,0.,4.8,0.,4.8,0.,4.8,1.,4.8
1979-07-05 09:23:22.250 ,0,0,0.,4.8,2.,4.8,2.,4.8,1.,4.8
1979-07-05 09:23:27.050 ,0,0,0.,4.8,2.,4.8,1.,4.8,1.,4.8
1979-07-05 09:23:31.850 ,0,0,0.,4.8,5.,4.8,0.,4.8,0.,4.8
1979-07-05 09:23:36.650 ,0,0,0.,4.8,3.,4.8,0.,4.8,0.,4.8
1979-07-05 09:23:41.450 ,0,0,0.,4.8,5.,4.8,3.,4.8,1.,4.8
1979-07-05 09:23:46.250 ,0,0,0.,4.8,3.,4.8,2.,4.8,2.,4.8
1979-07-05 09:23:51.050 ,0,0,0.,4.8,6.,4.8,0.,4.8,0.,4.8
1979-07-05 09:23:55.850 ,0,0,0.,4.8,2.,4.8,1.,4.8,0.,4.8
1979-07-05 09:24:00.650 ,1,0,0.,4.8,2.,4.8,0.,4.8,0.,4.8
1979-07-05 09:24:05.450 ,1,0,0.,4.8,5.,4.8,0.,4.8,0.,4.8
1979-07-05 09:24:10.250 ,1,0,0.,4.8,4.,4.8,0.,4.8,0.,4.8
1979-07-05 09:24:15.050 ,1,0,0.,4.8,2.,4.8,2.,4.8,0.,4.8
1979-07-05 09:24:19.850 ,1,0,0.,4.8,3.,4.8,2.,4.8,0.,4.8
1979-07-05 09:24:24.650 ,1,0,0.,4.8,2.,4.8,1.,4.8,0.,4.8
1979-07-05 09:24:29.450 ,1,0,0.,4.8,2.,4.8,1.,4.8,0.,4.8
1979-07-05 09:24:34.250 ,1,0,0.,4.8,2.,4.8,1.,4.8,2.,4.8
1979-07-05 09:24:39.050 ,1,0,0.,4.8,2.,4.8,0.,4.8,1.,4.8
1979-07-05 09:24:43.850 ,1,0,0.,4.8,3.,4.8,0.,4.8,0.,4.8
1979-07-05 09:24:48.650 ,2,0,0.,4.8,5.,4.8,0.,4.8,1.,4.8
1979-07-05 09:24:53.450 ,2,0,0.,4.8,4.,4.8,0.,4.8,0.,4.8
1979-07-05 09:24:58.250 ,2,0,0.,4.8,3.,4.8,1.,4.8,0.,4.8
1979-07-05 09:25:03.050 ,2,0,0.,4.8,1.,4.8,0.,4.8,2.,4.8
1979-07-05 09:25:07.850 ,2,0,0.,4.8,3.,4.8,0.,4.8,0.,4.8
1979-07-05 09:25:12.650 ,2,0,0.,4.8,2.,4.8,1.,4.8,0.,4.8
1979-07-05 09:25:17.450 ,2,0,0.,4.8,1.,4.8,0.,4.8,2.,4.8
1979-07-05 09:25:22.250 ,2,0,0.,4.8,1.,4.8,1.,4.8,0.,4.8
1979-07-05 09:25:27.050 ,2,0,0.,4.8,1.,4.8,2.,4.8,0.,4.8
1979-07-05 09:25:31.850 ,2,0,0.,4.8,6.,4.8,1.,4.8,0.,4.8
1979-07-05 09:25:36.650 ,3,0,0.,4.8,3.,4.8,2.,4.8,0.,4.8
1979-07-05 09:25:41.450 ,3,0,0.,4.8,5.,4.8,1.,4.8,0.,4.8
1979-07-05 09:25:46.250 ,3,0,0.,4.8,4.,4.8,2.,4.8,0.,4.8
1979-07-05 09:25:51.050 ,3,0,0.,4.8,5.,4.8,2.,4.8,1.,4.8
1979-07-05 09:25:55.850 ,3,0,0.,4.8,6.,4.8,0.,4.8,1.,4.8
1979-07-05 09:26:00.650 ,3,0,0.,4.8,2.,4.8,0.,4.8,1.,4.8
1979-07-05 09:26:05.450 ,3,0,0.,4.8,11.,4.8,1.,4.8,1.,4.8
1979-07-05 09:26:10.250 ,3,0,0.,4.8,5.,4.8,0.,4.8,1.,4.8
1979-07-05 09:26:15.050 ,3,0,0.,4.8,7.,4.8,5.,4.8,1.,4.8
1979-07-05 09:26:19.850 ,3,0,0.,4.8,3.,4.8,3.,4.8,1.,4.8
1979-07-05 09:26:24.650 ,4,0,0.,4.8,5.,4.8,2.,4.8,0.,4.8
1979-07-05 09:26:29.450 ,4,0,0.,4.8,3.,4.8,0.,4.8,0.,4.8
1979-07-05 09:26:34.250 ,4,0,,0,,0,,0,,0
1979-07-05 09:26:39.050 ,4,0,0.,4.8,3.,4.8,0.,4.8,1.,4.8
1979-07-05 09:26:43.850 ,4,0,0.,4.8,8.,4.8,0.,4.8,0.,4.8
1979-07-05 09:26:48.650 ,4,0,0.,4.8,8.,4.8,1.,4.8,0.,4.8
1979-07-05 09:26:53.450 ,4,0,0.,4.8,6.,4.8,0.,4.8,1.,4.8
1979-07-05 09:26:58.250 ,4,0,0.,4.8,6.,4.8,0.,4.8,1.,4.8
1979-07-05 09:27:03.050 ,4,0,0.,4.8,4.,4.8,1.,4.8,1.,4.8
1979-07-05 09:27:07.850 ,4,0,0.,4.8,5.,4.8,1.,4.8,0.,4.8
1979-07-05 09:27:12.650 ,5,0,0.,4.8,3.,4.8,0.,4.8,1.,4.8
1979-07-05 09:27:17.450 ,5,0,0.,4.8,4.,4.8,1.,4.8,0.,4.8
1979-07-05 09:27:22.250 ,5,0,0.,4.8,4.,4.8,0.,4.8,0.,4.8
1979-07-05 09:27:27.050 ,5,0,0.,4.8,6.,4.8,0.,4.8,1.,4.8
1979-07-05 09:27:31.850 ,5,0,0.,4.8,4.,4.8,2.,4.8,1.,4.8
1979-07-05 09:27:36.650 ,5,0,0.,4.8,5.,4.8,2.,4.8,2.,4.8
1979-07-05 09:27:41.450 ,5,0,0.,4.8,2.,4.8,2.,4.8,0.,4.8
1979-07-05 09:27:46.250 ,5,0,0.,4.8,7.,4.8,0.,4.8,1.,4.8
1979-07-05 09:27:51.050 ,5,0,0.,4.8,5.,4.8,1.,4.8,1.,4.8
1979-07-05 09:27:55.850 ,5,0,0.,4.8,8.,4.8,2.,4.8,1.,4.8
1979-07-05 09:28:00.650 ,6,0,0.,4.8,9.,4.8,1.,4.8,1.,4.8
1979-07-05 09:28:05.450 ,6,0,0.,4.8,3.,4.8,2.,4.8,2.,4.8
1979-07-05 09:28:10.250 ,6,0,0.,4.8,4.,4.8,6.,4.8,1.,4.8
1979-07-05 09:28:15.050 ,6,0,0.,4.8,5.,4.8,1.,4.8,2.,4.8
1979-07-05 09:28:19.850 ,6,0,0.,4.8,5.,4.8,1.,4.8,4.,4.8
1979-07-05 09:28:24.650 ,6,0,0.,4.8,9.,4.8,1.,4.8,0.,4.8
1979-07-05 09:28:29.450 ,6,0,0.,4.8,7.,4.8,1.,4.8,0.,4.8
1979-07-05 09:28:34.250 ,6,0,0.,4.8,4.,4.8,3.,4.8,1.,4.8
1979-07-05 09:28:39.050 ,6,0,0.,4.8,16.,4.8,2.,4.8,1.,4.8
1979-07-05 09:28:43.850 ,6,0,0.,4.8,6.,4.8,6.,4.8,0.,4.8
1979-07-05 09:28:48.650 ,7,0,0.,4.8,11.,4.8,0.,4.8,0.,4.8
1979-07-05 09:28:53.450 ,7,0,0.,4.8,7.,4.8,1.,4.8,0.,4.8
1979-07-05 09:28:58.250 ,7,0,0.,4.8,0.,4.8,0.,4.8,0.,4.8
1979-07-05 09:29:03.050 ,7,0,0.,4.8,0.,4.8,0.,4.8,0.,4.8
1979-07-05 09:29:07.850 ,7,0,0.,4.8,1.,4.8,0.,4.8,0.,4.8
1979-07-05 09:29:12.650 ,7,0,0.,4.8,0.,4.8,0.,4.8,0.,4.8
1979-07-05 09:29:17.450 ,7,0,0.,4.8,1.,4.8,1.,4.8,0.,4.8
1979-07-05 09:29:22.250 ,7,0,0.,4.8,1.,4.8,2.,4.8,0.,4.8
1979-07-05 09:29:27.050 ,7,0,0.,4.8,0.,4.8,0.,4.8,0.,4.8
1979-07-05 09:29:31.850 ,7,0,0.,4.8,0.,4.8,0.,4.8,0.,4.8
1979-07-05 09:29:36.650 ,7,0,0.,4.8,0.,4.8,0.,4.8,0.,4.8
1979-07-05 09:29:41.450 ,7,0,0.,4.8,0.,4.8,0.,4.8,0.,4.8
1979-07-05 09:29:46.250 ,7,0,0.,4.8,1.,4.8,0.,4.8,0.,4.8
1979-07-05 09:29:51.050 ,7,0,0.,4.8,1.,4.8,0.,4.8,0.,4.8
1979-07-05 09:29:55.850 ,7,0,0.,4.8,1.,4.8,1.,4.8,0.,4.8
1979-07-05 09:30:00.650 ,7,0,0.,4.8,0.,4.8,0.,4.8,0.,4.8
1979-07-05 09:30:05.450 ,7,0,0.,4.8,0.,4.8,0.,4.8,0.,4.8
1979-07-05 09:30:10.250 ,7,0,0.,4.8,2.,4.8,0.,4.8,0.,4.8
1979-07-05 09:30:15.050 ,7,0,0.,4.8,2.,4.8,0.,4.8,0.,4.8
1979-07-05 09:30:19.850 ,7,0,0.,4.8,0.,4.8,1.,4.8,0.,4.8
1979-07-05 09:30:24.650 ,6,0,0.,4.8,2.,4.8,0.,4.8,1.,4.8
1979-07-05 09:30:29.450 ,6,0,0.,4.8,0.,4.8,1.,4.8,1.,4.8
1979-07-05 09:30:34.250 ,6,0,0.,4.8,7.,4.8,0.,4.8,1.,4.8
1979-07-05 09:30:39.050 ,6,0,0.,4.8,5.,4.8,1.,4.8,2.,4.8
1979-07-05 09:30:43.850 ,6,0,0.,4.8,9.,4.8,4.,4.8,1.,4.8
1979-07-05 09:30:48.650 ,6,0,0.,4.8,12.,4.8,1.,4.8,2.,4.8
1979-07-05 09:30:53.450 ,6,0,0.,4.8,10.,4.8,4.,4.8,0.,4.8
1979-07-05 09:30:58.250 ,6,0,0.,4.8,12.,4.8,6.,4.8,0.,4.8
1979-07-05 09:31:03.050 ,6,0,0.,4.8,9.,4.8,1.,4.8,1.,4.8
1979-07-05 09:31:07.850 ,6,0,0.,4.8,8.,4.8,3.,4.8,1.,4.8
1979-07-05 09:31:12.650 ,5,0,0.,4.8,12.,4.8,3.,4.8,1.,4.8
1979-07-05 09:31:17.450 ,5,0,0.,4.8,14.,4.8,3.,4.8,0.,4.8
1979-07-05 09:31:22.250 ,5,0,0.,4.8,2.,4.8,1.,4.8,0.,4.8
1979-07-05 09:31:27.050 ,5,0,0.,4.8,7.,4.8,0.,4.8,2.,4.8
1979-07-05 09:31:31.850 ,5,0,0.,4.8,7.,4.8,0.,4.8,0.,4.8
1979-07-05 09:31:36.650 ,5,0,0.,4.8,9.,4.8,1.,4.8,0.,4.8
1979-07-05 09:31:41.450 ,5,0,0.,4.8,7.,4.8,0.,4.8,1.,4.8
1979-07-05 09:31:46.250 ,5,0,0.,4.8,8.,4.8,2.,4.8,1.,4.8
1979-07-05 09:31:51.050 ,5,0,0.,4.8,4.,4.8,0.,4.8,0.,4.8
1979-07-05 09:31:55.850 ,5,0,0.,4.8,9.,4.8,1.,4.8,1.,4.8
1979-07-05 09:32:00.650 ,4,0,0.,4.8,5.,4.8,0.,4.8,0.,4.8
1979-07-05 09:32:05.450 ,4,0,0.,4.8,7.,4.8,1.,4.8,0.,4.8
1979-07-05 09:32:10.250 ,4,0,0.,4.8,3.,4.8,2.,4.8,1.,4.8
1979-07-05 09:32:15.050 ,4,0,0.,4.8,7.,4.8,2.,4.8,2.,4.8
1979-07-05 09:32:19.850 ,4,0,0.,4.8,6.,4.8,1.,4.8,1.,4.8
1979-07-05 09:32:24.650 ,4,0,0.,4.8,5.,4.8,1.,4.8,0.,4.8
1979-07-05 09:32:29.450 ,4,0,0.,4.8,7.,4.8,0.,4.8,1.,4.8
1979-07-05 09:32:34.250 ,4,0,0.,4.8,9.,4.8,3.,4.8,2.,4.8
1979-07-05 09:32:39.050 ,4,0,0.,4.8,5.,4.8,1.,4.8,1.,4.8
1979-07-05 09:32:43.850 ,4,0,0.,4.8,4.,4.8,1.,4.8,0.,4.8
1979-07-05 09:32:48.650 ,3,0,0.,4.8,5.,4.8,0.,4.8,0.,4.8
1979-07-05 09:32:53.440 ,3,0,0.,4.8,2.,4.8,4.,4.8,1.,4.8
1979-07-05 09:32:58.240 ,3,0,0.,4.8,9.,4.8,2.,4.8,2.,4.8
1979-07-05 09:33:03.050 ,3,0,0.,4.8,3.,4.8,2.,4.8,0.,4.8
1979-07-05 09:33:07.840 ,3,0,0.,4.8,6.,4.8,0.,4.8,1.,4.8
1979-07-05 09:33:12.650 ,3,0,0.,4.8,5.,4.8,1.,4.8,0.,4.8
1979-07-05 09:33:17.440 ,3,0,0.,4.8,2.,4.8,1.,4.8,0.,4.8